Burns, OR

6:47 PM PDT on July 24, 2017 (GMT -0700)
Burns Municipal

Weather History for KBNO - August, 2013

Change the Weather History Date:

Friday, August 9, 2013

  Actual Average Record
Temperature  
Mean Temperature 68 °F 67 °F  
Max Temperature 83 °F 87 °F 98 °F (1984)
Min Temperature 53 °F 47 °F 34 °F (2016)
Degree Days  
Heating Degree Days 0 2  
Month to date heating degree days 14 11  
Since 1 June heating degree days 206 287  
Since 1 July heating degree days 18 69  
Cooling Degree Days 3 3  
Month to date cooling degree days 23 33  
Year to date cooling degree days 298 165  
Since 1 June cooling degree days 297 162  
Growing Degree Days 18 (Base 50)    
Moisture  
Dew Point 51 °F    
Average Humidity 61    
Maximum Humidity 93    
Minimum Humidity 28    
Precipitation  
Precipitation 0.32 in 0.02 in 0.32 in (2013)
Month to date precipitation 0.50 0.11  
Year to date precipitation 3.91 6.73  
Sea Level Pressure  
Sea Level Pressure 29.96 in    
Wind  
Wind Speed 10 mph (WSW)    
Max Wind Speed 24 mph    
Max Gust Speed 31 mph    
Visibility 9 miles    
Events Rain , Thunderstorm    
T = Trace of Precipitation, MM = Missing Value Source: NWS Daily Summary

Daily Weather History Graph

Daily Weather History Graph

Search for Another Location

Airport or City:

Trip Planner

Search our weather history database for the weather conditions in past years. The results will help you decide how hot, cold, wet, or windy it might be!

Date:

Astronomy

Aug. 09, 2013 Rise Set
Actual Time 5:54 AM PDT 8:07 PM PDT
Civil Twilight 5:22 AM PDT 8:39 PM PDT
Nautical Twilight 4:43 AM PDT 9:18 PM PDT
Astronomical Twilight 3:59 AM PDT 10:01 PM PDT
Moon 8:52 AM PDT (8/9) 9:11 PM PDT (8/9)
Length of Visible Light 15h 16m
Length of Day
14h 13m
Waxing Crescent, 8% of the Moon is Illuminated
Aug 9
Waxing Crescent
Aug 14
First Quarter
Aug 20
Full
Aug 28
Last Quarter
Sep 5
New

Hourly Weather History & Observations

Time (PDT) Temp. Dew Point Humidity Pressure Visibility Wind Dir Wind Speed Gust Speed Precip Events Conditions
12:53 AM 60.1 °F 48.9 °F 67% 29.91 in 10.0 mi West 13.8 mph - N/A   Clear
1:53 AM 59.0 °F 51.1 °F 75% 29.94 in 10.0 mi SSW 12.7 mph - 0.00 in Rain Light Rain
2:06 AM 60.8 °F 50.0 °F 68% 30.06 in 10.0 mi SW 12.7 mph - 0.00 in Rain , Thunderstorm Light Thunderstorms and Rain
2:23 AM 57.2 °F 51.8 °F 82% 30.10 in 10.0 mi South 16.1 mph - 0.03 in Rain Light Rain
2:53 AM 57.0 °F 52.0 °F 83% 29.99 in 10.0 mi South 19.6 mph 27.6 mph 0.04 in Rain Light Rain
3:05 AM 55.4 °F 53.6 °F 94% 30.11 in 8.0 mi SSW 6.9 mph - 0.02 in Rain , Thunderstorm Light Rain
3:33 AM 55.4 °F 53.6 °F 94% 30.10 in 6.0 mi WNW 9.2 mph - 0.08 in Rain Light Rain
3:53 AM 55.0 °F 53.1 °F 93% 30.04 in 4.0 mi NNE 5.8 mph - 0.12 in Rain Rain
4:00 AM 55.4 °F 53.6 °F 94% 30.12 in 2.5 mi NNW 13.8 mph - 0.05 in Rain , Thunderstorm Heavy Thunderstorms and Rain
4:10 AM 55.4 °F 53.6 °F 94% 30.11 in 4.0 mi NNW 17.3 mph - 0.09 in Rain , Thunderstorm Rain
4:19 AM 55.4 °F 53.6 °F 94% 30.09 in 7.0 mi NNW 16.1 mph - 0.10 in Rain Light Rain
4:53 AM 55.9 °F 52.0 °F 87% 29.92 in 6.0 mi NW 21.9 mph 31.1 mph 0.13 in Rain Rain
5:10 AM 55.4 °F 51.8 °F 88% 30.00 in 10.0 mi NW 20.7 mph 29.9 mph 0.02 in Rain , Thunderstorm Light Rain
5:25 AM 55.4 °F 51.8 °F 88% 30.00 in 10.0 mi NNW 16.1 mph - 0.02 in   Overcast
5:33 AM 55.4 °F 51.8 °F 88% 30.00 in 10.0 mi NW 17.3 mph 27.6 mph 0.02 in Thunderstorm Thunderstorm
5:48 AM 55.4 °F 51.8 °F 88% 30.03 in 10.0 mi NW 13.8 mph 21.9 mph 0.02 in Rain Light Rain
5:53 AM 55.9 °F 51.1 °F 84% 29.94 in 10.0 mi SW 13.8 mph 18.4 mph 0.02 in Rain , Thunderstorm Light Rain
6:13 AM 55.4 °F 51.8 °F 88% 30.05 in 9.0 mi West 12.7 mph 23.0 mph 0.00 in Rain Light Rain
6:53 AM 55.0 °F 52.0 °F 89% 29.95 in 10.0 mi West 6.9 mph - 0.01 in   Overcast
7:53 AM 60.1 °F 54.0 °F 80% 29.92 in 10.0 mi NNE 3.5 mph - N/A   Clear
8:53 AM 64.0 °F 54.0 °F 70% 29.90 in 10.0 mi ENE 6.9 mph - N/A   Clear
9:53 AM 68.0 °F 54.0 °F 61% 29.91 in 10.0 mi SSW 9.2 mph - N/A   Clear
10:53 AM 70.0 °F 55.0 °F 59% 29.92 in 10.0 mi South 8.1 mph - N/A   Clear
11:53 AM 73.9 °F 52.0 °F 46% 29.90 in 10.0 mi SW 5.8 mph - N/A   Clear
12:53 PM 78.1 °F 48.9 °F 36% 29.88 in 10.0 mi South 5.8 mph - N/A   Clear
1:53 PM 81.0 °F 46.9 °F 30% 29.85 in 10.0 mi SE 6.9 mph - N/A   Clear
2:53 PM 82.0 °F 46.0 °F 28% 29.83 in 10.0 mi South 8.1 mph - N/A   Clear
3:53 PM 79.0 °F 46.9 °F 32% 29.84 in 10.0 mi South 12.7 mph - N/A   Clear
4:53 PM 68.0 °F 46.0 °F 45% 29.91 in 10.0 mi North - - N/A   Clear
5:53 PM 64.9 °F 48.9 °F 56% 29.90 in 10.0 mi North - - 0.00 in Rain Light Rain
6:53 PM 70.0 °F 48.0 °F 46% 29.88 in 10.0 mi North - - 0.00 in   Clear
7:53 PM 64.9 °F 48.0 °F 54% 29.92 in 10.0 mi North - - N/A   Clear
8:53 PM 63.0 °F 46.9 °F 56% 29.97 in 10.0 mi North - - N/A   Mostly Cloudy
9:53 PM 62.1 °F 48.0 °F 60% 29.94 in 10.0 mi North - - N/A   Clear
10:53 PM 55.0 °F 46.9 °F 74% 29.95 in 10.0 mi North - - N/A   Clear
11:53 PM 57.0 °F 46.9 °F 69% 29.93 in 10.0 mi North - - N/A   Clear